Hourly Weather Haskovo

Today, 28 September, Monday

Time Temperature Precipitation Wind Pressure Humidity
00:00 +16°C° 0 mm 2 mps 741 mmHg 61%
01:00 +16°C° 0 mm 2 mps 741 mmHg 63%
02:00 +16°C° 0 mm 3 mps 741 mmHg 66%
03:00 +16°C° 0 mm 2 mps 741 mmHg 68%
04:00 +16°C° 0 mm 2 mps 740 mmHg 71%
05:00 +16°C° 0 mm 2 mps 740 mmHg 73%
06:00 +17°C° 0 mm 3 mps 741 mmHg 70%
07:00 +18°C° 0 mm 3 mps 741 mmHg 67%
08:00 +19°C° 0 mm 3 mps 741 mmHg 64%
09:00 +21°C° 0 mm 4 mps 741 mmHg 59%
10:00 +23°C° 0 mm 5 mps 741 mmHg 54%
11:00 +27°C° 0 mm 6 mps 741 mmHg 49%
12:00 +27°C° 0 mm 6 mps 741 mmHg 48%
13:00 +28°C° 0 mm 7 mps 740 mmHg 47%
14:00 +29°C° 0 mm 8 mps 740 mmHg 47%
15:00 +28°C° 0 mm 8 mps 740 mmHg 50%
16:00 +27°C° 0 mm 7 mps 739 mmHg 53%
17:00 +26°C° 0 mm 7 mps 739 mmHg 56%
18:00 +24°C° 0 mm 7 mps 739 mmHg 64%
19:00 +22°C° 0 mm 6 mps 739 mmHg 72%
20:00 +21°C° 0 mm 5 mps 739 mmHg 79%
21:00 +21°C° 0 mm 5 mps 739 mmHg 81%
22:00 +20°C° 0 mm 4 mps 739 mmHg 83%
23:00 +20°C° 0 mm 4 mps 739 mmHg 84%

Tomorrow, 29 September, Tuesday

Time Temperature Precipitation Wind Pressure Humidity
00:00 +20°C° 0 mm 4 mps 739 mmHg 85%
01:00 +19°C° 0 mm 3 mps 738 mmHg 85%
02:00 +19°C° 0 mm 3 mps 738 mmHg 86%
03:00 +18°C° 0 mm 2 mps 738 mmHg 87%
04:00 +18°C° 0 mm 2 mps 738 mmHg 89%
05:00 +18°C° 0 mm 1 mps 737 mmHg 90%
06:00 +18°C° 0.1 mm 2 mps 738 mmHg 85%
07:00 +19°C° 0.1 mm 2 mps 738 mmHg 80%
08:00 +20°C° 0.1 mm 2 mps 738 mmHg 75%
09:00 +21°C° 0.5 mm 2 mps 738 mmHg 67%
10:00 +22°C° 0.5 mm 3 mps 738 mmHg 59%
11:00 +25°C° 0.5 mm 3 mps 738 mmHg 51%
12:00 +25°C° 0.4 mm 3 mps 737 mmHg 48%
13:00 +25°C° 0.4 mm 4 mps 737 mmHg 45%
14:00 +25°C° 0.4 mm 4 mps 737 mmHg 42%
15:00 +25°C° 0.1 mm 3 mps 737 mmHg 42%
16:00 +25°C° 0.1 mm 3 mps 737 mmHg 42%
17:00 +25°C° 0.1 mm 2 mps 736 mmHg 41%
18:00 +23°C° 0.3 mm 2 mps 737 mmHg 49%
19:00 +21°C° 0.3 mm 1 mps 737 mmHg 56%
20:00 +19°C° 0.3 mm 1 mps 737 mmHg 63%
21:00 +19°C° 0.3 mm 1 mps 737 mmHg 66%
22:00 +18°C° 0.3 mm 1 mps 737 mmHg 69%
23:00 +16°C° 0.3 mm 1 mps 737 mmHg 72%

Day after tomorrow, 30 September, Wednesday

Time Temperature Precipitation Wind Pressure Humidity
00:00 +16°C° 0.1 mm 1 mps 737 mmHg 73%
01:00 +16°C° 0.1 mm 1 mps 737 mmHg 73%
02:00 +15°C° 0.1 mm 2 mps 737 mmHg 74%
03:00 +15°C° 0 mm 2 mps 737 mmHg 74%
04:00 +13°C° 0 mm 3 mps 737 mmHg 74%
05:00 +13°C° 0 mm 3 mps 737 mmHg 73%
06:00 +14°C° 0 mm 4 mps 737 mmHg 69%
07:00 +14°C° 0 mm 5 mps 737 mmHg 64%
08:00 +15°C° 0 mm 5 mps 737 mmHg 60%
09:00 +17°C° 0 mm 6 mps 737 mmHg 52%
10:00 +20°C° 0 mm 6 mps 737 mmHg 44%
11:00 +21°C° 0 mm 6 mps 737 mmHg 36%
12:00 +22°C° 0 mm 6 mps 737 mmHg 33%
13:00 +23°C° 0 mm 6 mps 737 mmHg 31%
14:00 +23°C° 0 mm 5 mps 736 mmHg 29%
15:00 +23°C° 0 mm 5 mps 736 mmHg 30%
16:00 +22°C° 0 mm 4 mps 736 mmHg 30%
17:00 +22°C° 0 mm 3 mps 735 mmHg 31%
18:00 +20°C° 0 mm 3 mps 736 mmHg 37%
19:00 +18°C° 0 mm 2 mps 736 mmHg 43%
20:00 +17°C° 0 mm 2 mps 736 mmHg 49%
21:00 +16°C° 0 mm 2 mps 736 mmHg 51%
22:00 +16°C° 0 mm 1 mps 736 mmHg 52%
23:00 +15°C° 0 mm 1 mps 736 mmHg 54%

1 October, Thursday

Time Temperature Precipitation Wind Pressure Humidity
00:00 +15°C° 0 mm 1 mps 736 mmHg 56%
01:00 +14°C° 0 mm 1 mps 735 mmHg 58%
02:00 +13°C° 0 mm 1 mps 735 mmHg 60%
03:00 +13°C° 0 mm 1 mps 735 mmHg 60%
04:00 +13°C° 0 mm 1 mps 735 mmHg 61%
05:00 +13°C° 0 mm 1 mps 735 mmHg 62%
06:00 +14°C° 0 mm 1 mps 735 mmHg 58%
07:00 +15°C° 0 mm 1 mps 735 mmHg 54%
08:00 +16°C° 0 mm 1 mps 735 mmHg 50%
09:00 +19°C° 0 mm 1 mps 735 mmHg 45%
10:00 +21°C° 0 mm 1 mps 735 mmHg 40%
11:00 +23°C° 0 mm 2 mps 735 mmHg 34%
12:00 +24°C° 0 mm 2 mps 735 mmHg 33%
13:00 +24°C° 0 mm 2 mps 734 mmHg 32%
14:00 +25°C° 0 mm 2 mps 734 mmHg 31%
15:00 +24°C° 0.1 mm 2 mps 734 mmHg 35%
16:00 +23°C° 0.1 mm 2 mps 734 mmHg 39%
17:00 +23°C° 0.1 mm 2 mps 734 mmHg 43%
18:00 +21°C° 0 mm 1 mps 734 mmHg 47%
19:00 +20°C° 0 mm 1 mps 735 mmHg 52%
20:00 +18°C° 0 mm 1 mps 735 mmHg 56%
21:00 +18°C° 0 mm 1 mps 735 mmHg 57%
22:00 +16°C° 0 mm 1 mps 735 mmHg 58%
23:00 +16°C° 0 mm 1 mps 735 mmHg 58%

2 October, Friday

Time Temperature Precipitation Wind Pressure Humidity
00:00 +16°C° 0 mm 1 mps 735 mmHg 59%
01:00 +15°C° 0 mm 1 mps 735 mmHg 60%
02:00 +15°C° 0 mm 1 mps 735 mmHg 61%
03:00 +14°C° 0 mm 1 mps 735 mmHg 62%
04:00 +13°C° 0 mm 0 mps 735 mmHg 64%
05:00 +13°C° 0 mm 0 mps 735 mmHg 66%
06:00 +14°C° 0 mm 0 mps 735 mmHg 62%
07:00 +15°C° 0 mm 0 mps 736 mmHg 58%
08:00 +16°C° 0 mm 0 mps 736 mmHg 54%
09:00 +20°C° 0 mm 1 mps 736 mmHg 48%
10:00 +22°C° 0 mm 1 mps 736 mmHg 42%
11:00 +25°C° 0 mm 2 mps 737 mmHg 36%
12:00 +26°C° 0 mm 3 mps 737 mmHg 33%
13:00 +27°C° 0 mm 3 mps 736 mmHg 31%
14:00 +28°C° 0 mm 4 mps 736 mmHg 28%
15:00 +27°C° 0 mm 5 mps 736 mmHg 32%
16:00 +27°C° 0 mm 5 mps 736 mmHg 36%
17:00 +26°C° 0 mm 6 mps 736 mmHg 40%
18:00 +23°C° 0 mm 5 mps 737 mmHg 49%
19:00 +21°C° 0 mm 4 mps 737 mmHg 57%
20:00 +19°C° 0 mm 4 mps 737 mmHg 66%
21:00 +19°C° 0 mm 3 mps 737 mmHg 67%
22:00 +18°C° 0 mm 2 mps 737 mmHg 69%
23:00 +18°C° 0 mm 2 mps 737 mmHg 71%

3 October, Saturday

Time Temperature Precipitation Wind Pressure Humidity
00:00 +17°C° 0 mm 2 mps 737 mmHg 72%
01:00 +18°C° 0 mm 1 mps 737 mmHg 74%
02:00 +16°C° 0 mm 1 mps 737 mmHg 75%
03:00 +16°C° 0 mm 1 mps 737 mmHg 77%
04:00 +16°C° 0 mm 1 mps 737 mmHg 79%
05:00 +15°C° 0 mm 1 mps 737 mmHg 81%
06:00 +16°C° 0 mm 1 mps 737 mmHg 78%
07:00 +18°C° 0 mm 1 mps 738 mmHg 75%
08:00 +19°C° 0 mm 1 mps 738 mmHg 72%
09:00 +20°C° 0 mm 2 mps 738 mmHg 63%
10:00 +24°C° 0 mm 3 mps 738 mmHg 54%
11:00 +26°C° 0 mm 3 mps 738 mmHg 45%
12:00 +27°C° 0 mm 4 mps 738 mmHg 43%
13:00 +28°C° 0 mm 5 mps 738 mmHg 40%
14:00 +29°C° 0 mm 6 mps 737 mmHg 38%
15:00 +28°C° 0 mm 6 mps 737 mmHg 41%
16:00 +28°C° 0 mm 6 mps 737 mmHg 43%
17:00 +27°C° 0 mm 6 mps 737 mmHg 46%
18:00 +25°C° 0 mm 5 mps 737 mmHg 54%
19:00 +22°C° 0 mm 4 mps 738 mmHg 62%
20:00 +20°C° 0 mm 3 mps 738 mmHg 70%
21:00 +20°C° 0 mm 2 mps 738 mmHg 72%
22:00 +19°C° 0 mm 2 mps 739 mmHg 75%
23:00 +19°C° 0 mm 1 mps 739 mmHg 77%
Show more